[[{"header":{"parameterUnit":"m.s-1","parameterCategory":1,"la1":30.2991,"la2":30.254,"lo1":-89.0895,"lo2":-89.0444,"dy":0.0017,"dx":0.0017,"nx":28,"ny":28,"refTime":"2024-12-24T09:00:00:Z","depth":0,"parameterNumber":2,"parameterNumberName":"U-component_of_WINDS"},"data":[0,0,0,0,0,0,0,0,0,0,0,0,0,0,0,0,0,0,0,0,0,0,0,0,0,0,0,0,0,0,0,0,0,0,0,0,0,0,0,0,0,0,0,0,0,0,0,0,0,0,0,0,0,0,0,0,0,0,-4.251,-4.2511,0,-4.2593,-4.2594,-4.2595,-4.2449,-4.2444,-4.244,-4.2435,-4.2523,-4.253,-4.2537,0,0,0,0,0,0,0,0,0,0,0,0,0,-4.2229,-4.2235,-4.251,-4.2511,-4.2512,-4.2593,-4.2594,-4.2595,-4.245,-4.2444,-4.2438,-4.2433,-4.2521,-4.2529,-4.2537,0,0,0,0,0,0,0,0,0,0,0,0,0,-4.2335,-4.2237,-4.251,-4.2449,-4.2445,-4.2593,-4.2594,-4.2595,-4.2451,-4.2444,-4.2437,-4.243,-4.2518,-4.2528,-4.2538,-4.275,0,0,-4.257,-4.2575,0,0,0,0,0,0,0,0,-4.2329,-4.2346,-4.2457,-4.2454,-4.2449,-4.2503,-4.2527,-4.2647,-4.2453,-4.2449,-4.2435,-4.2426,-4.2523,-4.2532,-4.2564,-4.2754,-4.2758,-4.2571,-4.2577,-4.2582,-4.2585,0,0,0,0,0,0,0,-4.2322,-4.2341,-4.2543,-4.2459,-4.2454,-4.2419,-4.2426,-4.2549,-4.2526,-4.2449,-4.2438,-4.245,-4.2519,-4.2554,-4.2565,-4.2759,-4.2571,-4.258,-4.2586,-4.259,-4.3127,-4.3134,0,0,0,0,0,0,-4.2322,-4.2336,-4.254,-4.2545,-4.237,-4.243,-4.2438,-4.2493,-4.2524,-4.2522,-4.2456,-4.2443,-4.254,-4.2553,-4.2568,-4.2817,-4.2582,-4.2591,-4.2597,-4.3119,-4.3129,-4.3137,0,0,0,0,0,0,-4.2317,-4.2342,-4.2537,-4.2438,-4.246,-4.2443,-4.2506,-4.2499,-4.2534,-4.253,-4.2526,-4.2497,-4.2535,-4.2553,-4.2705,-4.2819,-4.2596,-4.2606,-4.3109,-4.3122,-4.3133,-4.3319,0,0,0,0,0,0,-4.2309,-4.234,-4.242,-4.2441,-4.2466,-4.2674,-4.2513,-4.2506,-4.2552,-4.2535,-4.2567,-4.2565,-4.2531,-4.2691,-4.2716,-4.2829,-4.2614,-4.3099,-4.3115,-4.3129,-4.3303,-4.3336,-4.3365,0,0,0,0,0,-4.2299,-4.247,-4.2425,-4.245,-4.2565,-4.268,-4.2695,-4.2651,-4.2562,-4.2642,-4.2639,-4.2564,-4.2802,-4.2708,-4.2735,-4.2853,-4.3092,-4.311,-4.3128,-4.3289,-4.333,-4.3364,0,0,0,0,0,0,-4.2465,-4.2472,-4.2422,-4.2604,-4.2643,-4.2655,-4.2755,-4.2695,-4.2761,-4.2743,-4.2686,-4.2694,-4.2859,-4.287,-4.2765,-4.3059,-4.2932,-4.2956,-4.3045,-4.3084,-4.3114,-4.3109,-4.2622,0,0,0,0,0,-4.2522,-4.2614,-4.2615,-4.2776,-4.2798,-4.2774,-4.2822,-4.2785,-4.2823,-4.2839,-4.2847,-4.2888,-4.2971,-4.3028,-4.3105,-4.3303,-4.3309,-4.3398,-4.3429,-4.3454,-4.3476,-4.3583,-4.3622,-4.3196,-4.3196,-4.3196,0,0,-4.2642,-4.2657,-4.2719,-4.281,-4.2835,-4.2932,-4.2789,-4.2897,-4.2969,-4.2855,-4.3,-4.3008,-4.3049,-4.3226,-4.3304,-4.3241,-4.3595,-4.3477,-4.3497,-4.3506,-4.3605,-4.3646,-4.3681,-4.3209,-4.3206,-4.3205,0,0,-4.291,-4.2931,-4.3067,-4.3095,-4.3135,-4.3117,-4.3151,-4.3173,-4.3173,-4.3317,-4.3233,-4.3318,-4.3464,-4.3497,-4.3533,-4.3813,-4.3746,-4.3839,-4.4001,-4.4106,-4.4139,-4.4169,-4.427,-4.4306,-4.3861,-4.3862,-4.3862,0,-4.3055,-4.3197,-4.3145,-4.326,-4.3303,-4.3202,-4.334,-4.337,-4.3434,-4.3466,-4.3394,-4.3574,-4.3595,-4.3778,-4.3846,-4.3878,-4.3915,-4.3836,-4.4138,-4.4167,-4.4194,-4.429,-4.4328,-4.3873,-4.3872,-4.387,-4.3869,0,-4.3374,-4.3474,-4.3579,-4.3642,-4.3696,-4.3822,-4.379,-4.3851,-4.3809,-4.38,-4.3947,-4.3969,-4.4048,-4.4088,-4.4049,-4.4267,-4.4226,-4.4147,-4.4019,-4.4247,-4.4336,-4.4372,-4.3889,-4.3885,-4.3881,-4.3879,0,0,-4.375,-4.3781,-4.3821,-4.3848,-4.3884,-4.3961,-4.4082,-4.4159,-4.4213,-4.426,-4.4361,-4.4486,-4.4413,-4.4454,-4.4417,-4.4509,-4.473,-4.4418,-4.4418,-4.4476,-4.4972,-4.5033,-4.5076,-4.4685,-4.4692,-4.4697,-4.4969,0,-4.4017,-4.4226,-4.4182,-4.4387,-4.4479,-4.4385,-4.4491,-4.4525,-4.452,-4.4597,-4.4591,-4.4681,-4.4577,-4.4601,-4.4687,-4.4685,-4.4829,-4.4665,-4.478,-4.4785,-4.4774,-4.5122,-4.5186,-4.5442,-4.5003,-4.5009,-4.5014,0,-4.4358,-4.4416,-4.4631,-4.4652,-4.4689,-4.4785,-4.4851,-4.4926,-4.4963,-4.4953,-4.4998,-4.4944,-4.5065,-4.4934,-4.5101,-4.499,-4.5034,-4.504,-4.5049,-4.506,-4.4914,-4.5143,-4.5522,-4.5561,-4.5068,-4.5063,-4.5059,0,-4.4612,-4.4745,-4.489,-4.4916,-4.4944,-4.5014,-4.5029,-4.5058,-4.5107,-4.5165,-4.5196,-4.5269,-4.5309,-4.5366,-4.5333,-4.524,-4.5506,-4.5372,-4.5502,-4.5503,-4.5563,-4.556,-4.5956,-4.559,-4.559,-4.5589,-4.5588,0,-4.4916,-4.5051,-4.5004,-4.5094,-4.5243,-4.5191,-4.534,-4.5344,-4.5371,-4.546,-4.5383,-4.5468,-4.5418,-4.55,-4.5475,-4.5617,-4.5636,-4.5631,-4.5623,-4.5639,-4.564,-4.5668,-4.565,-4.5599,-4.5597,-4.5595,-4.5593,0,-4.5226,-4.52,-4.5352,-4.5366,-4.5372,-4.5482,-4.5493,-4.5577,-4.5565,-4.5679,-4.5703,-4.5685,-4.5777,-4.5749,-4.5849,-4.5831,-4.6013,-4.5981,-4.6,-4.5993,-4.6124,-4.6113,-4.6554,-4.6609,-4.6207,-4.6211,-4.6214,0,-4.5423,-4.5524,-4.5548,-4.5602,-4.5622,-4.571,-4.5759,-4.5712,-4.5766,-4.5816,-4.5894,-4.5979,-4.6045,-4.6197,-4.6193,-4.627,-4.624,-4.6389,-4.6251,-4.6264,-4.6244,-4.6239,-4.6249,-4.6417,-4.6422,-4.6426,-4.6429,0,-4.5775,-4.5756,-4.5829,-4.5899,-4.5959,-4.6012,-4.6057,-4.6106,-4.6061,-4.6127,-4.622,-4.6271,-4.6372,-4.6458,-4.6527,-4.6543,-4.648,-4.6472,-4.6506,-4.6524,-4.6532,-4.653,-4.6077,-4.6463,-4.6459,-4.6457,-4.6455,-4.6453,-4.6035,-4.612,-4.6151,-4.6235,-4.6264,-4.6308,-4.6387,-4.6385,-4.6461,-4.6539,-4.6506,-4.6614,-4.6648,-4.6734,-4.6759,-4.6843,-4.6785,-4.6835,-4.6848,-4.6861,-4.6878,-4.6517,-4.6855,-4.6854,-4.6853,-4.6852,-4.6851,0,-4.6383,-4.6398,-4.6475,-4.6541,-4.6608,-4.654,-4.6587,-4.6647,-4.6742,-4.6779,-4.6844,-4.6952,-4.7034,-4.7037,-4.7114,-4.7181,-4.7154,-4.7203,-4.7198,-4.7203,-4.6924,-4.6887,-4.7224,-4.7224,-4.7224,-4.7224,-4.7223,-4.7223,-4.6573,-4.6714,-4.67,-4.6856,-4.6869,-4.6973,-4.7005,-4.7046,-4.7074,-4.7197,-4.7265,-4.7265,-4.7289,-4.7367,-4.744,-4.7439,-4.7472,-4.7532,-4.752,-4.726,-4.7223,-4.7188,-4.7153,-4.754,-4.754,-4.7792,-4.7795,-4.7797]},{"header":{"parameterUnit":"m.s-1","parameterCategory":1,"la1":30.2991,"la2":30.254,"lo1":-89.0895,"lo2":-89.0444,"dy":0.0017,"dx":0.0017,"nx":28,"ny":28,"refTime":"2024-12-24T09:00:00:Z","depth":0,"parameterNumber":3,"parameterNumberName":"V-component_of_WINDS"},"data":[0,0,0,0,0,0,0,0,0,0,0,0,0,0,0,0,0,0,0,0,0,0,0,0,0,0,0,0,0,0,0,0,0,0,0,0,0,0,0,0,0,0,0,0,0,0,0,0,0,0,0,0,0,0,0,0,0,0,-2.1682,-2.1682,0,-2.1697,-2.1697,-2.1698,-2.168,-2.168,-2.1679,-2.1678,-2.1693,-2.1694,-2.1695,0,0,0,0,0,0,0,0,0,0,0,0,0,-2.1637,-2.1638,-2.1682,-2.1682,-2.1683,-2.1697,-2.1697,-2.1698,-2.1681,-2.168,-2.1679,-2.1678,-2.1693,-2.1694,-2.1695,0,0,0,0,0,0,0,0,0,0,0,0,0,-2.1655,-2.1638,-2.1682,-2.1676,-2.1675,-2.1697,-2.1697,-2.1698,-2.1681,-2.168,-2.1679,-2.1678,-2.1693,-2.1694,-2.1695,-2.1724,0,0,-2.17,-2.1701,0,0,0,0,0,0,0,0,-2.1654,-2.1656,-2.1677,-2.1676,-2.1676,-2.1686,-2.1687,-2.1707,-2.1681,-2.1679,-2.1678,-2.1677,-2.1692,-2.1693,-2.1698,-2.1725,-2.1725,-2.17,-2.1701,-2.1702,-2.1702,0,0,0,0,0,0,0,-2.1652,-2.1656,-2.1688,-2.1677,-2.1676,-2.1672,-2.1673,-2.169,-2.169,-2.1679,-2.1678,-2.168,-2.1691,-2.1697,-2.1698,-2.1726,-2.17,-2.1701,-2.1702,-2.1703,-2.1774,-2.1775,0,0,0,0,0,0,-2.1652,-2.1655,-2.1688,-2.1689,-2.1662,-2.1673,-2.1675,-2.1684,-2.169,-2.169,-2.168,-2.1679,-2.1695,-2.1697,-2.1699,-2.1731,-2.1702,-2.1703,-2.1704,-2.1773,-2.1775,-2.1776,0,0,0,0,0,0,-2.1651,-2.1655,-2.1687,-2.1671,-2.1675,-2.1675,-2.1685,-2.1685,-2.169,-2.1691,-2.1691,-2.1686,-2.1694,-2.1697,-2.1717,-2.1732,-2.1704,-2.1705,-2.1772,-2.1774,-2.1775,-2.1797,0,0,0,0,0,0,-2.165,-2.1655,-2.1666,-2.1672,-2.1676,-2.1706,-2.1686,-2.1686,-2.1693,-2.1691,-2.1697,-2.1697,-2.1693,-2.1715,-2.1719,-2.1733,-2.1706,-2.1771,-2.1773,-2.1775,-2.1795,-2.1799,-2.1803,0,0,0,0,0,-2.1648,-2.1672,-2.1667,-2.1671,-2.169,-2.1707,-2.1709,-2.1705,-2.1694,-2.1705,-2.1705,-2.1697,-2.173,-2.1718,-2.1722,-2.1736,-2.177,-2.1772,-2.1775,-2.1794,-2.1799,-2.1803,0,0,0,0,0,0,-2.1669,-2.1673,-2.1667,-2.1694,-2.17,-2.1704,-2.1718,-2.1711,-2.1721,-2.1718,-2.1712,-2.1714,-2.1736,-2.1738,-2.1725,-2.1763,-2.1748,-2.1751,-2.1761,-2.1766,-2.1769,-2.1768,-2.1708,0,0,0,0,0,-2.1677,-2.1691,-2.1693,-2.1716,-2.172,-2.1718,-2.1726,-2.1722,-2.1728,-2.1731,-2.1733,-2.1739,-2.175,-2.1758,-2.1769,-2.1796,-2.1796,-2.1808,-2.1811,-2.1814,-2.1817,-2.1829,-2.1834,-2.1783,-2.1783,-2.1783,0,0,-2.1693,-2.1697,-2.1706,-2.172,-2.1725,-2.1738,-2.1721,-2.1736,-2.1746,-2.1733,-2.1752,-2.1754,-2.1761,-2.1784,-2.1794,-2.1787,-2.1831,-2.1817,-2.182,-2.1821,-2.1832,-2.1837,-2.1841,-2.1785,-2.1784,-2.1784,0,0,-2.1729,-2.1734,-2.1753,-2.1757,-2.1764,-2.1762,-2.1767,-2.1772,-2.1772,-2.1792,-2.1782,-2.1793,-2.1813,-2.1818,-2.1823,-2.1858,-2.185,-2.1862,-2.1881,-2.1894,-2.1898,-2.1901,-2.1912,-2.1917,-2.1865,-2.1865,-2.1865,0,-2.1748,-2.1768,-2.1763,-2.1779,-2.1785,-2.1773,-2.1791,-2.1796,-2.1806,-2.181,-2.1802,-2.1826,-2.1829,-2.1853,-2.1861,-2.1866,-2.187,-2.1861,-2.1898,-2.1901,-2.1904,-2.1915,-2.1919,-2.1866,-2.1866,-2.1866,-2.1866,0,-2.179,-2.1804,-2.1819,-2.1828,-2.1836,-2.1853,-2.185,-2.1858,-2.1853,-2.1852,-2.1871,-2.1875,-2.1885,-2.1891,-2.1887,-2.1913,-2.1908,-2.1899,-2.1883,-2.191,-2.192,-2.1925,-2.1868,-2.1867,-2.1867,-2.1867,0,0,-2.1841,-2.1846,-2.1851,-2.1854,-2.186,-2.187,-2.1886,-2.1896,-2.1903,-2.191,-2.1922,-2.1939,-2.193,-2.1935,-2.1931,-2.1942,-2.1968,-2.1931,-2.1931,-2.1937,-2.1996,-2.2002,-2.2007,-2.1963,-2.1963,-2.1964,-2.1995,0,-2.1876,-2.1903,-2.1898,-2.1924,-2.1936,-2.1924,-2.1938,-2.1942,-2.1942,-2.1952,-2.1951,-2.1962,-2.195,-2.1953,-2.1963,-2.1963,-2.198,-2.1961,-2.1973,-2.1974,-2.1971,-2.2013,-2.202,-2.2049,-2.1999,-2.2,-2.2,0,-2.192,-2.1928,-2.1955,-2.1957,-2.1962,-2.1974,-2.1982,-2.1992,-2.1996,-2.1995,-2.2,-2.1994,-2.2008,-2.1993,-2.2012,-2.1999,-2.2004,-2.2004,-2.2005,-2.2006,-2.1988,-2.2013,-2.2058,-2.2062,-2.2006,-2.2006,-2.2005,0,-2.1952,-2.197,-2.1988,-2.1991,-2.1994,-2.2003,-2.2004,-2.2008,-2.2014,-2.202,-2.2024,-2.2033,-2.2037,-2.2044,-2.2039,-2.2028,-2.2059,-2.2043,-2.2057,-2.2057,-2.2064,-2.2063,-2.2109,-2.2068,-2.2068,-2.2068,-2.2068,0,-2.1991,-2.2008,-2.2002,-2.2013,-2.2031,-2.2024,-2.2042,-2.2043,-2.2045,-2.2056,-2.2046,-2.2056,-2.205,-2.2059,-2.2055,-2.2071,-2.2074,-2.2072,-2.2071,-2.2073,-2.2073,-2.2075,-2.2073,-2.2069,-2.2069,-2.2069,-2.2069,0,-2.203,-2.2027,-2.2045,-2.2046,-2.2047,-2.206,-2.2061,-2.207,-2.2069,-2.2082,-2.2084,-2.2081,-2.2091,-2.2087,-2.2098,-2.2096,-2.2116,-2.2112,-2.2114,-2.2113,-2.2127,-2.2125,-2.2175,-2.2181,-2.2137,-2.2138,-2.2138,0,-2.2055,-2.2067,-2.2069,-2.2075,-2.2077,-2.2087,-2.2093,-2.2087,-2.2093,-2.2097,-2.2106,-2.2115,-2.2122,-2.2139,-2.2137,-2.2145,-2.2141,-2.2158,-2.2142,-2.2143,-2.214,-2.2139,-2.2139,-2.2161,-2.2161,-2.2162,-2.2162,0,-2.2099,-2.2096,-2.2104,-2.2111,-2.2118,-2.2123,-2.2128,-2.2133,-2.2127,-2.2134,-2.2144,-2.2149,-2.2159,-2.2168,-2.2175,-2.2176,-2.2168,-2.2167,-2.2171,-2.2172,-2.2172,-2.2171,-2.2121,-2.2166,-2.2166,-2.2165,-2.2165,-2.2165,-2.213,-2.214,-2.2142,-2.2151,-2.2154,-2.2158,-2.2166,-2.2165,-2.2173,-2.2181,-2.2177,-2.2188,-2.219,-2.2198,-2.22,-2.2208,-2.2202,-2.2207,-2.2208,-2.2209,-2.221,-2.2171,-2.221,-2.2209,-2.2209,-2.2209,-2.2209,0,-2.2172,-2.2173,-2.2181,-2.2187,-2.2194,-2.2185,-2.2189,-2.2195,-2.2205,-2.2208,-2.2214,-2.2225,-2.2233,-2.2232,-2.2239,-2.2245,-2.2242,-2.2247,-2.2246,-2.2246,-2.2217,-2.2212,-2.225,-2.225,-2.225,-2.225,-2.225,-2.225,-2.2195,-2.221,-2.2207,-2.2224,-2.2224,-2.2234,-2.2237,-2.224,-2.2242,-2.2254,-2.2261,-2.226,-2.226,-2.2267,-2.2274,-2.2273,-2.2276,-2.2283,-2.228,-2.2253,-2.2249,-2.2245,-2.2241,-2.2283,-2.2283,-2.2309,-2.2309,-2.231]}]]